Waarnemingen

Advertentie
Mijn weer
Ölands Södra Udde, Zweden (2644): temperatuur & dauwpunt: 17.10.2018 22:00:00 - 23.10.2018 22:00:00 (CEST)Ölands Södra Udde, Zweden (2644): windsnelheid & windstoten: 17.10.2018 22:00:00 - 23.10.2018 22:00:00 (CEST)Ölands Södra Udde, Zweden (2644): windrichting: 17.10.2018 22:00:00 - 23.10.2018 22:00:00 (CEST)Ölands Södra Udde, Zweden (2644): luchtdruk: 17.10.2018 22:00:00 - 23.10.2018 22:00:00 (CEST)Ölands Södra Udde, Zweden (2644): zicht: 17.10.2018 22:00:00 - 23.10.2018 22:00:00 (CEST)Ölands Södra Udde, Zweden (2644): neerslag: 17.10.2018 22:00:00 - 23.10.2018 22:00:00 (CEST)
Datum & Tijd tt [°C] td [°C] ff [km/u] ff [kn] fx [km/u] fx [kn] dd ppp [hPa] vv [km] rr [mm]
23.10.2018 22:00:00 8,0 4,4 35 19 53 29 NW 994,3 50 -
23.10.2018 21:00:00 8,1 5,4 29 16 38 21 WNW 993,5 50 -
23.10.2018 20:00:00 8,4 5,7 30 16 38 20 W 993,1 50 -
23.10.2018 19:00:00 8,3 6,3 27 14 64 35 WNW 993,0 46 -
23.10.2018 18:00:00 8,8 5,7 33 18 64 35 WNW 992,5 50 -
23.10.2018 17:00:00 9,1 6,2 24 13 58 32 WNW 992,0 42 -
23.10.2018 16:00:00 9,5 6,4 27 14 58 32 WNW 992,0 42 -
23.10.2018 15:00:00 11,0 6,7 31 17 48 26 WNW 991,9 27 -
23.10.2018 14:00:00 10,6 6,9 33 18 59 32 W 992,3 39 -
23.10.2018 13:00:00 10,2 6,7 37 20 59 32 WNW 992,8 46 -
23.10.2018 12:00:00 9,9 7,7 31 17 51 28 W 992,9 38 -
23.10.2018 11:00:00 9,8 7,9 35 19 62 34 W 993,1 32 -
23.10.2018 10:00:00 9,4 8,0 43 23 65 35 W 994,1 36 -
23.10.2018 09:00:00 9,2 7,8 48 26 70 38 WZW 995,5 13 -
23.10.2018 08:00:00 9,0 7,3 45 24 75 40 WZW 997,2 38 -
23.10.2018 07:00:00 8,9 6,9 45 24 75 40 WZW 999,1 35 -
23.10.2018 06:00:00 9,2 7,1 49 26 71 39 WZW 1002,2 22 -
23.10.2018 05:00:00 8,1 6,7 44 24 69 37 ZW 1005,0 13 -
23.10.2018 04:00:00 7,8 6,1 46 25 67 36 WZW 1008,4 10 -
23.10.2018 03:00:00 8,1 6,1 34 18 55 30 WZW 1011,4 13 -
23.10.2018 02:00:00 8,5 5,4 35 19 52 28 WZW 1013,4 22 -
23.10.2018 01:00:00 8,6 5,3 34 18 46 25 WZW 1015,2 21 -
23.10.2018 00:00:00 8,6 5,5 31 17 46 25 W 1016,7 22 -
22.10.2018 23:00:00 8,7 4,7 29 16 42 23 W 1017,6 24 -
22.10.2018 22:00:00 - - - - 43 23 - - - -
22.10.2018 21:00:00 8,4 4,6 22 12 43 23 W 1019,0 27 -
22.10.2018 20:00:00 8,8 4,2 30 16 41 22 W 1019,3 31 -
22.10.2018 19:00:00 9,1 4,1 24 13 48 26 W 1019,7 34 -
22.10.2018 18:00:00 9,5 4,3 29 16 48 26 W 1019,6 34 -
22.10.2018 17:00:00 9,8 4,4 31 17 45 24 WNW 1019,8 39 -
22.10.2018 16:00:00 10,4 3,9 35 19 45 24 WNW 1019,4 37 -
22.10.2018 15:00:00 10,7 3,7 33 18 44 24 WNW 1019,2 36 -
22.10.2018 14:00:00 10,2 5,2 26 14 42 23 WNW 1019,0 37 -
22.10.2018 13:00:00 10,9 4,4 32 18 42 23 WNW 1018,9 36 -
22.10.2018 12:00:00 10,4 5,8 29 16 35 19 WNW 1019,2 26 -
22.10.2018 11:00:00 10,1 6,4 22 12 40 21 W 1019,3 26 -
22.10.2018 10:00:00 9,4 6,3 26 14 40 21 W 1019,3 31 0,0
22.10.2018 09:00:00 9,8 6,7 33 18 40 21 W 1018,9 41 0,0
22.10.2018 08:00:00 10,0 8,6 18 10 38 20 W 1018,0 14 0,0
22.10.2018 07:00:00 10,0 9,5 27 14 40 22 W 1017,5 3,4 0,0
22.10.2018 06:00:00 9,9 9,4 25 14 40 22 WZW 1017,5 2,3 0,0
22.10.2018 05:00:00 10,1 9,6 29 16 42 23 WZW 1017,6 2,3 0,0
22.10.2018 04:00:00 10,2 9,7 30 16 42 23 WZW 1017,9 2,4 0,0
22.10.2018 03:00:00 10,7 9,9 32 18 42 23 WZW 1018,3 3,6 0,0
22.10.2018 02:00:00 10,2 9,6 25 14 47 25 ZW 1019,0 5 0,0
22.10.2018 01:00:00 10,8 9,7 34 18 47 25 ZW 1019,7 11 0,0
22.10.2018 00:00:00 10,8 9,6 37 20 46 25 ZW 1020,1 15 0,0
21.10.2018 23:00:00 10,3 9,4 19 10 38 21 ZW 1020,7 19 0,0
21.10.2018 22:00:00 10,4 9,2 19 10 34 18 ZW 1021,2 26 0,0
21.10.2018 21:00:00 10,4 9,0 19 11 35 19 ZW 1021,9 34 0,0
21.10.2018 20:00:00 10,1 9,0 21 11 35 19 ZW 1022,4 26 0,0
21.10.2018 19:00:00 - - - - 31 17 - - - -
21.10.2018 18:00:00 9,9 8,5 22 12 31 17 ZW 1023,0 30 0,0
21.10.2018 17:00:00 9,9 8,3 21 12 31 17 ZW 1023,3 27 0,0
21.10.2018 16:00:00 10,2 8,3 22 12 29 16 ZW 1023,9 36 0,0
21.10.2018 15:00:00 10,5 8,1 20 11 28 15 ZW 1024,3 30 0,0
21.10.2018 14:00:00 10,7 8,5 15 8 28 15 ZW 1024,8 27 0,0
21.10.2018 13:00:00 10,5 8,3 22 12 27 14 ZW 1025,4 25 0,0
21.10.2018 12:00:00 10,3 9,1 12 6 18 10 ZW 1025,8 24 0,0
21.10.2018 11:00:00 8,6 8,5 9 5 19 10 ZW 1025,9 7 0,0
21.10.2018 10:00:00 7,1 7,0 11 6 21 12 WZW 1026,1 0,6 0,0
21.10.2018 09:00:00 7,0 6,6 11 6 21 12 WZW 1026,0 1,6 0,0
21.10.2018 08:00:00 7,1 7,0 11 6 16 9 WZW 1025,8 22 0,0
21.10.2018 07:00:00 6,9 6,8 9 5 13 7 ZW 1025,7 - 0,0
21.10.2018 06:00:00 6,8 6,5 5 3 8 4 W 1025,6 - 0,0
21.10.2018 05:00:00 6,6 6,3 6 3 10 5 WNW 1025,5 - 0,0
21.10.2018 04:00:00 6,7 6,6 5 3 10 5 NW 1025,7 - 0,0
21.10.2018 03:00:00 7,0 6,7 8 4 10 6 W 1025,5 - 0,0
21.10.2018 02:00:00 6,9 6,6 9 5 11 6 WNW 1025,5 - 0,0
21.10.2018 01:00:00 7,3 6,9 10 5 12 7 NNW 1025,2 - 0,0
21.10.2018 00:00:00 7,8 7,2 10 6 12 7 NW 1025,2 - 0,0
20.10.2018 23:00:00 7,2 6,8 6 4 10 6 NW 1025,1 - 0,0
20.10.2018 22:00:00 8,2 7,6 8 5 10 6 W 1025,1 - 0,0
20.10.2018 21:00:00 8,5 7,6 6 3 15 8 W 1024,6 - 0,0
20.10.2018 20:00:00 8,6 7,5 8 4 18 10 W 1024,4 - 0,0
20.10.2018 19:00:00 8,5 7,6 13 7 18 10 WZW 1024,1 - 0,0
20.10.2018 18:00:00 8,5 7,4 13 7 18 10 WZW 1023,8 - 0,0
20.10.2018 17:00:00 9,8 7,6 13 7 21 11 WZW 1023,6 50 0,0
20.10.2018 16:00:00 10,0 7,6 11 6 21 11 WZW 1023,3 45 0,0
20.10.2018 15:00:00 10,1 7,9 12 7 21 12 WZW 1023,5 50 0,0
20.10.2018 14:00:00 10,3 7,9 9 5 27 14 WZW 1023,5 45 0,0
20.10.2018 13:00:00 9,4 7,3 18 10 27 14 W 1023,6 44 0,0
20.10.2018 12:00:00 9,3 7,4 11 6 19 10 WZW 1023,6 42 0,0
20.10.2018 11:00:00 9,2 7,3 14 8 25 14 W 1023,5 29 0,0
20.10.2018 10:00:00 8,4 7,0 17 9 26 14 W 1023,2 37 0,0
20.10.2018 09:00:00 8,3 7,2 18 10 26 14 W 1022,9 40 0,0
20.10.2018 08:00:00 8,1 6,7 17 9 21 12 W 1022,7 45 0,0
20.10.2018 07:00:00 8,1 6,9 14 7 23 12 W 1022,4 - 0,0
20.10.2018 06:00:00 7,7 6,8 13 7 23 12 W 1022,3 - 0,0
20.10.2018 05:00:00 7,8 6,7 13 7 21 11 W 1022,6 - 0,0
20.10.2018 04:00:00 7,6 6,7 13 7 21 11 W 1022,6 - 0,0
20.10.2018 03:00:00 7,7 6,9 14 8 19 11 WZW 1022,8 - 0,0
20.10.2018 02:00:00 7,8 6,7 7 4 16 9 W 1022,9 - 0,0
20.10.2018 01:00:00 7,5 6,8 7 4 14 8 W 1023,1 - 0,0
20.10.2018 00:00:00 7,7 7,1 11 6 13 7 WZW 1023,2 - 0,0
19.10.2018 23:00:00 8,0 7,1 10 6 17 9 WZW 1023,6 - 0,0
19.10.2018 22:00:00 8,1 7,5 9 5 17 9 ZW 1023,7 - 0,0
19.10.2018 21:00:00 8,4 7,3 13 7 18 10 ZW 1023,7 - 0,0
19.10.2018 20:00:00 8,2 6,9 11 6 22 12 WZW 1023,3 - 0,0
19.10.2018 19:00:00 8,6 6,7 14 8 22 12 WZW 1023,4 - 0,0
19.10.2018 18:00:00 8,3 6,1 12 6 16 9 WZW 1023,5 50 0,0
19.10.2018 17:00:00 8,7 5,6 9 5 13 7 ZW 1023,7 50 0,0
19.10.2018 16:00:00 - - - - 10 5 - - - -
19.10.2018 15:00:00 10,6 4,9 4 2 9 5 ZZW 1024,3 46 0,0
19.10.2018 14:00:00 9,2 6,1 6 3 9 5 W 1024,7 42 0,0
19.10.2018 13:00:00 8,5 6,3 6 4 11 6 WNW 1024,8 41 0,0
19.10.2018 12:00:00 7,5 5,5 7 4 14 8 NW 1024,9 50 0,0
19.10.2018 11:00:00 7,6 5,7 8 5 17 9 NNW 1024,9 42 0,0
19.10.2018 10:00:00 7,2 5,5 12 7 18 10 NNW 1024,7 45 0,0
19.10.2018 09:00:00 6,9 5,1 13 7 19 10 NNW 1024,4 50 0,0
19.10.2018 08:00:00 6,4 4,7 16 9 19 10 NNW 1024,0 50 0,0
19.10.2018 07:00:00 6,5 4,7 15 8 19 10 NNW 1023,7 50 0,0
19.10.2018 06:00:00 6,5 4,8 16 9 19 10 NNW 1023,5 50 0,0
19.10.2018 05:00:00 6,7 5,0 16 9 18 10 NNW 1023,5 50 0,0
19.10.2018 04:00:00 6,9 5,7 13 7 16 8 NNW 1023,2 50 0,0
19.10.2018 03:00:00 6,2 4,8 10 5 15 8 NNW 1023,2 50 0,0
19.10.2018 02:00:00 5,4 3,9 11 6 15 8 N 1023,3 50 0,0
19.10.2018 01:00:00 5,7 4,3 11 6 16 8 N 1023,3 50 0,0
19.10.2018 00:00:00 6,1 4,7 12 6 16 9 N 1022,8 50 0,0
18.10.2018 23:00:00 6,5 4,3 14 8 16 9 N 1022,5 50 0,0
18.10.2018 22:00:00 7,6 6,4 11 6 15 8 NNW 1022,2 50 0,0
18.10.2018 21:00:00 8,5 7,6 11 6 17 9 NNW 1021,6 21 0,0
18.10.2018 20:00:00 8,7 7,8 8 4 17 9 N 1021,0 12 0,0
18.10.2018 19:00:00 9,2 8,9 8 4 11 6 NW 1020,5 2,4 0,0
18.10.2018 18:00:00 10,2 9,9 6 3 12 6 W 1019,9 3,0 0,0
18.10.2018 17:00:00 11,3 10,0 6 3 11 6 WZW 1019,2 7 0,0
18.10.2018 16:00:00 12,4 11,3 6 4 10 6 W 1018,7 9 0,0
18.10.2018 15:00:00 11,3 11,1 5 3 10 6 NW 1018,8 4,9 0,1
18.10.2018 14:00:00 10,5 10,3 5 3 8 4 WNW 1018,7 2,8 0,0
18.10.2018 13:00:00 9,7 9,6 5 3 11 6 WZW 1018,7 2,5 0,0
18.10.2018 12:00:00 9,6 9,5 3 2 16 8 W 1018,6 1,8 0,0
18.10.2018 11:00:00 9,0 8,9 7 4 16 8 W 1018,6 0,4 0,0
18.10.2018 10:00:00 9,2 9,1 6 3 14 7 W 1018,4 0,2 0,0
18.10.2018 09:00:00 9,0 8,9 10 5 14 7 W 1018,3 0,9 0,0
18.10.2018 08:00:00 8,3 8,2 7 4 14 7 WZW 1017,9 3,7 0,0
18.10.2018 07:00:00 7,1 7,0 9 5 13 7 ZZW 1017,8 - 0,0
18.10.2018 06:00:00 7,4 7,3 6 3 15 8 WZW 1018,0 - 0,0
18.10.2018 05:00:00 7,8 7,7 8 5 16 8 ZW 1018,1 - 0,2
18.10.2018 04:00:00 8,3 8,2 11 6 16 8 ZZW 1018,4 - 0,0
18.10.2018 03:00:00 7,5 7,4 9 5 11 6 Z 1018,9 - 0,0
18.10.2018 02:00:00 7,8 7,7 7 4 14 8 Z 1019,0 - 0,0
18.10.2018 01:00:00 8,8 8,7 4 2 18 10 W 1019,4 - 0,0
18.10.2018 00:00:00 9,5 9,4 11 6 18 10 ZZW 1019,7 - 0,0
17.10.2018 23:00:00 9,8 9,7 13 7 16 9 ZZW 1019,7 - 0,0
17.10.2018 22:00:00 9,0 8,9 14 8 16 9 Z 1020,1 - 0,0

tt = temperatuur
td = dauwpunt
ff = windsnelheid
fx = windstoten
dd = windrichting
ppp = luchtdruk
vv = zicht
rr = neerslag

Weerstations in de omgeving